DW7921 Weather Reports


time (UTC)temp
C
wind
direction
speed
KPH
gust
KPH
rain 1hr
cm
rain 24hr
cm
rain mn
cm
humidity
%
barometer
mb
20260507110027 10 242 0.0 0.0 0.00 0.00 0.00 89 1021.4
20260507104525 10 262 0.0 0.0 0.00 0.00 0.00 89 1021.5
20260507103022 10 264 0.0 0.0 0.00 0.00 0.00 88 1021.6
20260507101522 10 264 0.0 0.0 0.00 0.00 0.00 88 1021.6
20260507100030 10 262 0.0 0.0 0.00 0.00 0.00 88 1021.6
20260507094520 10 238 0.0 0.0 0.00 0.00 0.00 89 1021.5
20260507093019 10 238 0.0 0.0 0.00 0.00 0.00 89 1021.5
20260507091522 10 242 0.0 0.0 0.00 0.00 0.00 89 1021.5
20260507090017 9 238 0.0 0.0 0.00 0.00 0.00 89 1021.5
20260507084516 10 242 0.0 0.0 0.00 0.00 0.00 89 1021.4
20260507083015 10 277 0.0 0.0 0.00 0.00 0.00 89 1021.3
20260507081513 10 277 0.0 0.0 0.00 0.00 0.00 89 1021.4
20260507080013 10 245 0.0 0.0 0.00 0.00 0.00 89 1021.4
20260507074520 10 250 0.0 0.0 0.00 0.00 0.00 89 1021.4
20260507073010 10 240 0.0 0.0 0.00 0.00 0.00 89 1021.4
20260507071508 10 253 0.0 0.0 0.00 0.00 0.00 89 1021.3
20260507070010 10 228 0.0 0.0 0.00 0.00 0.00 89 1021.3
20260507064506 10 257 0.0 0.0 0.00 0.00 0.00 89 1021.4
20260507063005 10 213 0.0 0.0 0.00 0.00 0.00 89 1021.4
20260507061504 10 221 0.0 0.0 0.00 0.00 0.00 89 1021.5
20260507060005 10 248 0.0 0.0 0.00 0.00 0.00 88 1021.4
20260507054504 10 188 0.0 0.0 0.00 0.00 0.00 88 1021.4
20260507053001 11 242 0.0 0.0 0.00 0.00 0.00 88 1021.3
20260507051502 11 259 0.0 0.0 0.00 0.00 0.00 88 1021.4
20260507050001 11 250 0.0 0.0 0.00 0.00 0.00 88 1021.4
20260507044504 11 256 0.0 0.0 0.00 0.00 0.00 88 1021.5
20260507043059 11 257 0.0 0.0 0.00 0.00 0.00 88 1021.4
20260507041603 11 228 0.0 0.0 0.00 0.00 0.00 87 1021.3
20260507040107 11 240 0.0 0.0 0.00 0.00 0.00 87 1021.3
20260507034618 11 283 0.0 1.6 0.00 0.00 0.00 86 1021.1
20260507033105 11 248 0.0 0.0 0.00 0.00 0.00 86 1021.1
20260507031554 12 259 0.0 0.0 0.00 0.00 0.00 85 1020.9
20260507030053 12 281 0.0 1.6 0.00 0.00 0.00 84 1020.8
20260507024600 12 212 0.0 6.4 0.00 0.00 0.00 83 1020.7
20260507023052 12 284 0.0 3.2 0.00 0.00 0.00 82 1020.6
20260507021558 12 248 0.0 0.0 0.00 0.00 0.00 82 1020.5
20260507020051 12 178 0.0 0.0 0.00 0.00 0.00 81 1020.5
20260507014552 12 243 0.0 0.0 0.00 0.00 0.00 81 1020.5
20260507013106 12 280 0.0 1.6 0.00 0.00 0.00 81 1020.5
20260507011549 12 242 0.0 3.2 0.00 0.00 0.00 81 1020.5
20260507010052 13 264 0.0 4.8 0.00 0.00 0.00 81 1020.7
20260507004548 13 267 0.0 4.8 0.00 0.00 0.00 80 1020.7
20260507003047 13 280 0.0 0.0 0.00 0.00 0.00 81 1020.7
20260507001606 13 253 0.0 1.6 0.00 0.00 0.00 81 1020.6
20260507000046 13 267 0.0 1.6 0.00 0.00 0.00 81 1020.7
20260506234555 13 245 0.0 1.6 0.00 0.00 0.00 81 1020.7
20260506233045 12 268 0.0 0.0 0.00 0.00 0.00 81 1020.7
20260506231544 13 266 0.0 1.6 0.00 0.00 0.00 80 1020.8
20260506230043 13 246 0.0 1.6 0.00 0.00 0.00 79 1020.9
20260506224557 13 253 0.0 3.2 0.00 0.00 0.00 79 1020.8
20260506223042 13 262 0.0 1.6 0.00 0.00 0.00 78 1020.9
20260506221541 13 228 0.0 1.6 0.00 0.00 0.00 78 1020.9
20260506220045 13 240 0.0 6.4 0.00 0.00 0.00 79 1021.0
20260506214539 13 249 0.0 9.7 0.00 0.00 0.00 79 1021.0
20260506213040 12 281 0.0 6.4 0.00 0.00 0.00 80 1021.1
20260506211540 13 240 0.0 1.6 0.00 0.00 0.00 79 1021.2
20260506210035 13 249 0.0 1.6 0.00 0.00 0.00 79 1021.1
20260506204538 12 233 0.0 0.0 0.00 0.00 0.00 80 1021.0
20260506203032 12 270 0.0 0.0 0.00 0.00 0.00 80 1021.0
20260506201532 13 278 0.0 0.0 0.00 0.00 0.00 80 1020.9
20260506200029 13 288 0.0 0.0 0.00 0.00 0.00 81 1020.8
20260506194533 12 133 0.0 0.0 0.00 0.00 0.00 82 1020.8
20260506193024 12 252 0.0 0.0 0.00 0.00 0.00 83 1020.7
20260506191522 12 276 0.0 3.2 0.00 0.00 0.00 84 1020.6
20260506190021 12 277 0.0 1.6 0.00 0.00 0.00 85 1020.6
20260506184524 11 256 0.0 1.6 0.00 0.00 0.00 87 1020.7
20260506183019 11 278 0.0 1.6 0.00 0.00 0.00 88 1020.7
20260506181518 11 273 0.0 1.6 0.00 0.00 0.00 88 1020.7
20260506180017 11 252 0.0 1.6 0.00 0.00 0.00 89 1020.3
20260506174516 11 235 0.0 0.0 0.00 0.00 0.00 89 1020.3
20260506173020 11 287 0.0 0.0 0.00 0.00 0.00 89 1020.5
20260506171520 11 260 0.0 0.0 0.00 0.00 0.00 89 1020.5
20260506170015 11 238 0.0 0.0 0.00 0.00 0.00 89 1020.4
20260506164515 10 262 0.0 4.8 0.00 0.00 0.00 89 1020.3
20260506163012 10 267 0.0 1.6 0.00 0.00 0.00 88 1020.1
20260506161510 10 284 0.0 0.0 0.00 0.00 0.00 87 1019.8
20260506160015 10 280 0.0 1.6 0.00 0.00 0.00 87 1019.8
20260506154516 10 229 0.0 1.6 0.00 0.00 0.00 88 1019.9
20260506153008 10 229 0.0 0.0 0.00 0.00 0.00 88 1020.2
20260506151508 10 245 0.0 0.0 0.00 0.00 0.00 87 1019.9
20260506150007 10 233 0.0 1.6 0.00 0.00 0.00 87 1019.7
20260506144610 10 249 0.0 0.0 0.00 0.00 0.00 88 1019.9
20260506143002 10 277 0.0 0.0 0.00 0.00 0.00 88 1019.8
20260506141557 -17 0.0 0.0 0.00 0.00 0.00 1019.5
20260506140054 -17 0.0 0.0 0.00 0.00 0.00 1019.7
20260506134549 -17 0.0 0.0 0.00 0.00 0.00 1019.4
20260506133045 -17 0.0 0.0 0.00 0.00 0.00 1019.6
20260506131555 -17 0.0 0.0 0.00 0.00 0.00 1019.4
20260506130040 -17 0.0 0.0 0.00 0.00 0.00 1019.1
20260506124534 10 252 0.0 0.0 0.00 0.00 0.00 88 1019.1
20260506123031 11 277 0.0 0.0 0.00 0.00 0.00 89 1018.9
20260506121530 11 264 0.0 0.0 0.00 0.00 0.00 89 1018.9
20260506120029 11 214 0.0 0.0 0.00 0.00 0.00 89 1018.8
20260506114528 11 259 0.0 0.0 0.00 0.00 0.00 89 1018.6
20260506113027 11 262 0.0 0.0 0.00 0.00 0.00 88 1018.6
20260506111525 11 240 0.0 0.0 0.00 0.00 0.00 88 1018.6